Flag for Canada Weather past 2 weeks in Peterborough, Ontario, Canada

Now
37 °F

Overcast.


Feels Like: 31 °F
Forecast: 33 / 39 °F
Wind: 9 mph from West

Location: Peterborough Airport

Current Time: Dec 26, 2014 at 3:43:25 AM

Latest Report: Dec 26, 2014 at 3:00 AM


Visibility: 9 mi

Pressure: 30.12 "Hg

Humidity: 75%

Dew point: 30 °F

Location of PeterboroughLocation

Historic Weather in Peterborough — Graph

°F

Peterborough temperature yesterday

Maximum temperature yesterday: 50 °F (at 12:00 AM)
Minimum temperature yesterday: 37 °F (at 3:58 PM)
Average temperature yesterday: 39 °F

Past Weeks' High & Low Weather Summary

 TemperatureHumidityPressure
High50 °F (Dec 24, 11:00 PM)100% (Dec 12, 7:00 PM)30.35 "Hg (Dec 12, 7:00 PM)
Low12 °F (Dec 20, 7:00 AM)51% (Dec 20, 3:00 PM)29.18 "Hg (Dec 25, 12:50 AM)
Average31 °F91%29.97 "Hg
* Reported Dec 11 2:00 AM — Dec 26 2:00 AM, Peterborough, Weather by CustomWeather, © 2014

Note: Actual official high and low records may vary slightly from our data, if they occured in-between our weather recording intervals... More about our weather records

Advertising

Peterborough weather history for previous 24 hours

 ConditionsComfort  
Time TempWeatherWind HumidityBarometerVisibility
2:00 AM
Dec 26
37 °FOvercast.7 mph75%30.09 "Hg9 mi
1:00 AM37 °FOvercast.9 mph81%30.08 "Hg9 mi
12:52 AM37 °FOvercast.9 mph81%30.08 "Hg9 mi
12:00 AM37 °FOvercast.13 mph75%30.07 "Hg9 mi
11:00 PM
Dec 25
37 °FOvercast.9 mph81%30.07 "Hg9 mi
10:00 PM37 °FOvercast.10 mph81%30.04 "Hg9 mi
9:00 PM37 °FOvercast.13 mph75%30.02 "Hg9 mi
8:00 PM37 °FOvercast.15 mph75%30.01 "Hg9 mi
7:00 PM37 °FOvercast.10 mph75%29.98 "Hg9 mi
6:00 PM37 °FOvercast.10 mph75%29.94 "Hg9 mi
5:00 PM37 °FOvercast.10 mph87%29.91 "Hg9 mi
4:00 PM37 °FLight rain. Cloudy.15 mph87%29.87 "Hg9 mi
3:58 PM37 °FLight rain. Cloudy.17 mph87%29.87 "Hg9 mi
3:00 PM39 °FOvercast.21 mph75%29.80 "Hg9 mi
2:00 PM41 °FMostly cloudy.18 mph70%29.75 "Hg9 mi
1:00 PM39 °FLight rain. More clouds than sun.17 mph81%29.71 "Hg9 mi
12:56 PM39 °FLight rain. Mostly cloudy.16 mph81%29.71 "Hg9 mi
12:00 PM39 °FMostly cloudy.25 mph81%29.67 "Hg9 mi
11:00 AM39 °FMostly cloudy.22 mph75%29.65 "Hg9 mi
10:00 AM39 °FMostly cloudy.23 mph75%29.60 "Hg9 mi
9:00 AM39 °FMostly cloudy.17 mph81%29.55 "Hg9 mi
8:00 AM39 °FCloudy.17 mph81%29.51 "Hg9 mi
7:00 AM39 °FOvercast.17 mph81%29.48 "Hg9 mi
6:00 AM39 °FMostly cloudy.15 mph81%29.43 "Hg9 mi
5:00 AM39 °FMostly cloudy.23 mph81%29.38 "Hg9 mi
4:53 AM39 °FMostly cloudy.23 mph81%29.38 "Hg9 mi
4:00 AM39 °FOvercast.18 mph81%29.35 "Hg9 mi
3:57 AM39 °FMostly cloudy.18 mph81%29.35 "Hg9 mi
3:00 AM39 °FMostly cloudy.22 mph87%29.28 "Hg9 mi
Weather by CustomWeather, © 2014

See weather overviewHow to use our weather pages